FREGAT R/B, 65591

Orbit data source: Space-Track

FREGAT R/B, 65591 is space debris in MEO originally from a launch on Sat, 13 Sep 2025 UTC launched from the Plesetsk Missile And Space Complex (PKMTR). Debris objects in space refer to the collection of defunct objects orbiting the Earth. Examples of debris include non-operational satellites, rocket bodies, and fragments generated from explosions, collisions, or faulty payload assembly.

Loading next visibility...
Identifier
65591, 2025-206C
Orbit
MEO
Country
Flag of CISCIS
Related business
None
Manufacturer
Lavochkin
Mission
Spacecraft
Bus & Motor
FREGAT, Unknown motor
Mass
1,000 kg wet, 1,000 kg dry
Launch date (UTC)
2025-09-13 (5 days ago)
Launch vehicle
Unknown
Launch site
Plesetsk Missile And Space Complex (PKMTR)
Object type
Payload
Rocket body
Debris
Shape & HBR
Unknown
Radar Cross Section
RCS unknown

Expand to show TLE details & history
Last TLE update: 5 days ago

TLE from 5 days ago
0 FREGAT R/B
1 65591U 25206C   25256.15803299 -.00000057  00000-0  00000-0 0  9991
2 65591  64.7973 324.6194 0063594 269.3577  89.9798  2.14914099    19
Epoch: 2025-09-13T03:47Z
TLE epoch observation values (Epoch: 2025-09-13T03:47:34.05Z)
Latitude
0.00006°
Longitude
-84.65757°
Altitude
18,987.837 km
Speed
3.964 km/s
True Right ascension
21h 38m 31s
True Declination
0° 00' 00"
Sunlit
Object was in daylight at epoch
Visualization orbit readout
Latitude
Unknown
Longitude
Unknown
Altitude
Unknown
Speed
Unknown
Apparent Right ascension
Unknown
Apparent Declination
Unknown
Sunlit
N/A
Visualization observer readout
Local Sidereal Time
12:32:07
Azimuth
Unknown
Elevation
Unknown
Doppler factor
Unknown
Orbital elements
Apogee altitude
19,147.22 km
Perigee altitude
18,824.62 km
Semi-major axis
25,364.057 km
Eccentricity
0.00636
Inclination
64.7973°
RAAN
324.6194°
Arg. of periapsis
269.3577°
True anomaly
90.70852°
Mean anomaly
89.9798°
Eccentric anomaly
90.34416°
Mean motion
0.5373 °/min
Orbital period
670.02 mins
BSTAR
0
Loading maneuver chart data...
Computing Atmospheric mass density...
Loading historical data...
Loading historical data...
Loading historical data...
Loading historical data...
Loading historical data...
Loading historical data...
Loading historical data...
Other satellites on launch #206 in the year 2025 (2025-09-13 UTC)

Documentation

Showing up to 5 results
|